Regional Weather Roundup
Issued by NWS Spokane, WA

Home | Current Version | Previous Version | Text Only | Print | Product List | Glossary On
Versions: 1 2 3 4 5 6 7 8 9 10 11 12 13 14 15 16 17 18 19 20 21 22 23 24 25 26 27 28 29 30 31 32 33 34 35 36 37 38 39 40 41 42 43 44 45 46 47 48 49 50
000
NZUS01 KOTX 031710
RWROTX
EASTERN WASHINGTON/NORTHERN IDAHO ROUNDUP
NATIONAL WEATHER SERVICE, SPOKANE WA
1000 AM PDT SUN MAY 03 2015

Note: "fair" indicated few or no clouds below 12,000 feet with no
significant weather and/or obstructions to visibility.

...NORTHEAST WASHINGTON AND NORTHERN IDAHO PANHANDLE...

CITY           SKY/WX    TMP DP  RH WIND       PRES   REMARKS
SPOKANE INTL   MOSUNNY   55  26  32 NE10      30.00S
SPOKANE DOWNTO SUNNY     58  29  33 CALM      30.01F
COEUR D ALENE  SUNNY     55  27  33 NE17      30.02F
DEER PARK      SUNNY     58  25  28 NE12      30.02S
SANDPOINT      SUNNY     55  25  30 NE10      30.03S
BONNERS FERRY  FAIR      48  25  40 NW3       30.05F

...SOUTHEAST WASHINGTON AND SOUTHERN IDAHO PANHANDLE...

CITY           SKY/WX    TMP DP  RH WIND       PRES   REMARKS
WALLA WALLA    SUNNY     58  31  35 SW5       29.97R
PULLMAN/MOSCOW SUNNY     61  27  27 VRB6      29.99S
LEWISTON       SUNNY     57  34  41 CALM      29.98S
LOWELL           N/A     54  33  45 CALM      29.98F

...COLUMBIA BASIN...

CITY           SKY/WX    TMP DP  RH WIND       PRES   REMARKS
EPHRATA        SUNNY     63  22  20 N8        29.99S
MOSES LAKE     SUNNY     62  27  26 E7        30.00F
TRI CITIES     SUNNY     60  34  37 N9        29.99S
HERMISTON      SUNNY     60  32  34 E3        29.97S
PENDLETON      SUNNY     61  36  39 N5        29.96S

...EAST SLOPES CASCADES...

CITY           SKY/WX    TMP DP  RH WIND       PRES   REMARKS
THE DALLES     SUNNY     60  42  51 NW3       29.97S
YAKIMA         SUNNY     64  33  31 W7        29.97F
ELLENSBURG     SUNNY     58  36  43 VRB3      29.99F
WENATCHEE      SUNNY     57  31  37 W5        30.01F
OMAK           SUNNY     57  28  33 N14       30.02F

...SOUTHERN BRITISH COLUMBIA...

CITY           SKY/WX    TMP DP  RH WIND       PRES   REMARKS
PENTICTON      SUNNY     52  30  43 N9        30.07F
CASTLEGAR      SUNNY     50  28  43 N7        30.07F
CRANBROOK      SUNNY     48  19  32 N5        30.06F

...WESTERN MONTANA...

CITY           SKY/WX    TMP DP  RH WIND       PRES   REMARKS
MISSOULA       SUNNY     52  26  36 CALM      30.01F

...NEIGHBORING CITIES...

CITY           SKY/WX    TMP DP  RH WIND       PRES   REMARKS
SEATTLE        SUNNY     57  43  59 N8        30.01F
CALGARY        MOSUNNY   46  28  49 SE6       30.05S



USA.gov is the U.S. government's official web portal to all federal, state and local government web resources and services.